sat.trackr.live / text

‹ back to catalog

STARLINK-36702

NORAD 67714 · 2026-025X

PAYLOAD ACTIVE UNKNOWN

§ Identity

Operator
Country
US
Launch date
2026-02-07
Launch site
AFWTR
Launch vehicle
Mass (kg)
RCS (m²)

Purposes: comms

External: N2YO · Heavens-Above · Gunter

§ Orbital elements

Epoch: 2026-09-19T13:59:34.151424Z

Period
93.91 min
Inclination
97.2848°
Eccentricity
0.0000441
Mean motion
15.33455239 rev/d
Perigee alt
465.2 km
Apogee alt
465.8 km
Semi-major
6,843.6 km
B*
4.6848e-4
RAAN
12.4718°
Arg perigee
105.7500°
Mean anomaly
254.3792°
Rev number
3,572

§ Raw data

STARLINK-367021 67714U 26025X   26262.58303416  .00015084  00000+0  46848-3 0  99982 67714  97.2848  12.4718 0000441 105.7500 254.3792 15.33455239 35724

JSON: /api/v1/satellites/67714 · /tle

For live sub-satellite position, see the globe view (requires WebGL).

§ Visibility from observer

Set your observer location to see the next 7 days of passes ≥ 10°. The values pass through the URL so the page stays shareable.

No JS? Fill the form by hand. The geolocation button needs JavaScript.